• en France
  • Liste des pays
  • À 7 jours
  • Température de l'eau
  • Carte satellitaire
  • Carte météo
  • Widgets météo
  • user-avatar
    Se connecter

    Météo par heure à Milinow

    Ce jour, 15 Octobre, Lundi

    Heure Température Précipitation Vent Pression Humidité
    00:00 +14°C° 0 mm 4 m/s 756 mmHg 62%
    01:00 +14°C° 0 mm 4 m/s 756 mmHg 64%
    02:00 +13°C° 0 mm 4 m/s 756 mmHg 64%
    03:00 +13°C° 0 mm 4 m/s 756 mmHg 65%
    04:00 +13°C° 0 mm 4 m/s 756 mmHg 66%
    05:00 +13°C° 0 mm 4 m/s 756 mmHg 66%
    06:00 +13°C° 0 mm 4 m/s 756 mmHg 67%
    07:00 +12°C° 0 mm 4 m/s 756 mmHg 65%
    08:00 +14°C° 0 mm 4 m/s 756 mmHg 57%
    09:00 +17°C° 0 mm 5 m/s 756 mmHg 49%
    10:00 +20°C° 0 mm 5 m/s 756 mmHg 41%
    11:00 +21°C° 0 mm 5 m/s 756 mmHg 38%
    12:00 +22°C° 0 mm 5 m/s 756 mmHg 35%
    13:00 +23°C° 0 mm 5 m/s 756 mmHg 31%
    14:00 +22°C° 0 mm 5 m/s 756 mmHg 35%
    15:00 +21°C° 0 mm 4 m/s 756 mmHg 38%
    16:00 +21°C° 0 mm 4 m/s 756 mmHg 42%
    17:00 +19°C° 0 mm 4 m/s 756 mmHg 44%
    18:00 +18°C° 0 mm 4 m/s 756 mmHg 47%
    19:00 +17°C° 0 mm 4 m/s 756 mmHg 50%
    20:00 +16°C° 0 mm 3 m/s 756 mmHg 50%
    21:00 +16°C° 0 mm 3 m/s 756 mmHg 50%
    22:00 +14°C° 0 mm 3 m/s 756 mmHg 50%
    23:00 +14°C° 0 mm 3 m/s 756 mmHg 50%

    Demain, 16 Octobre, Mardi

    Heure Température Précipitation Vent Pression Humidité
    00:00 +13°C° 0 mm 3 m/s 756 mmHg 51%
    01:00 +13°C° 0 mm 3 m/s 756 mmHg 51%
    02:00 +13°C° 0 mm 3 m/s 756 mmHg 52%
    03:00 +12°C° 0 mm 3 m/s 756 mmHg 53%
    04:00 +12°C° 0 mm 3 m/s 756 mmHg 54%
    05:00 +12°C° 0 mm 3 m/s 756 mmHg 55%
    06:00 +12°C° 0 mm 3 m/s 756 mmHg 56%
    07:00 +12°C° 0 mm 3 m/s 756 mmHg 57%
    08:00 +14°C° 0 mm 3 m/s 756 mmHg 52%
    09:00 +17°C° 0 mm 3 m/s 756 mmHg 47%
    10:00 +18°C° 0 mm 3 m/s 756 mmHg 42%
    11:00 +20°C° 0 mm 3 m/s 756 mmHg 40%
    12:00 +21°C° 0 mm 4 m/s 756 mmHg 37%
    13:00 +22°C° 0 mm 4 m/s 756 mmHg 34%
    14:00 +21°C° 0 mm 3 m/s 756 mmHg 37%
    15:00 +20°C° 0 mm 3 m/s 756 mmHg 40%
    16:00 +20°C° 0 mm 2 m/s 756 mmHg 43%
    17:00 +18°C° 0 mm 2 m/s 756 mmHg 44%
    18:00 +17°C° 0 mm 2 m/s 756 mmHg 46%
    19:00 +16°C° 0 mm 3 m/s 756 mmHg 48%
    20:00 +16°C° 0 mm 3 m/s 756 mmHg 49%
    21:00 +14°C° 0 mm 3 m/s 757 mmHg 50%
    22:00 +15°C° 0 mm 2 m/s 757 mmHg 52%
    23:00 +15°C° 0 mm 2 m/s 757 mmHg 53%

    Après-demain, 17 Octobre, Mercredi

    Heure Température Précipitation Vent Pression Humidité
    00:00 +14°C° 0 mm 2 m/s 757 mmHg 55%
    01:00 +14°C° 0 mm 2 m/s 757 mmHg 56%
    02:00 +14°C° 0 mm 2 m/s 757 mmHg 57%
    03:00 +14°C° 0 mm 2 m/s 757 mmHg 58%
    04:00 +13°C° 0 mm 2 m/s 757 mmHg 60%
    05:00 +13°C° 0 mm 2 m/s 757 mmHg 60%
    06:00 +13°C° 0 mm 2 m/s 757 mmHg 61%
    07:00 +13°C° 0 mm 2 m/s 757 mmHg 61%
    08:00 +15°C° 0 mm 2 m/s 757 mmHg 56%
    09:00 +17°C° 0 mm 2 m/s 757 mmHg 51%
    10:00 +19°C° 0 mm 2 m/s 757 mmHg 45%
    11:00 +20°C° 0 mm 2 m/s 757 mmHg 43%
    12:00 +21°C° 0 mm 2 m/s 756 mmHg 40%
    13:00 +23°C° 0 mm 2 m/s 756 mmHg 37%
    14:00 +21°C° 0 mm 2 m/s 756 mmHg 40%
    15:00 +20°C° 0 mm 2 m/s 756 mmHg 42%
    16:00 +20°C° 0 mm 2 m/s 756 mmHg 45%
    17:00 +19°C° 0.1 mm 2 m/s 756 mmHg 47%
    18:00 +18°C° 0.1 mm 2 m/s 756 mmHg 49%
    19:00 +17°C° 0.1 mm 2 m/s 756 mmHg 51%
    20:00 +16°C° 0 mm 2 m/s 756 mmHg 52%
    21:00 +16°C° 0 mm 2 m/s 756 mmHg 53%
    22:00 +15°C° 0 mm 2 m/s 756 mmHg 54%
    23:00 +15°C° 0 mm 2 m/s 756 mmHg 54%

    18 Octobre, Jeudi

    Heure Température Précipitation Vent Pression Humidité
    00:00 +15°C° 0 mm 2 m/s 756 mmHg 55%
    01:00 +15°C° 0 mm 2 m/s 756 mmHg 55%
    02:00 +15°C° 0.2 mm 2 m/s 756 mmHg 60%
    03:00 +15°C° 0.2 mm 1 m/s 756 mmHg 65%
    04:00 +14°C° 0.2 mm 1 m/s 755 mmHg 70%
    05:00 +14°C° 0 mm 1 m/s 755 mmHg 71%
    06:00 +14°C° 0 mm 1 m/s 755 mmHg 72%
    07:00 +14°C° 0 mm 1 m/s 756 mmHg 72%
    08:00 +15°C° 0.1 mm 1 m/s 756 mmHg 70%
    09:00 +16°C° 0.1 mm 1 m/s 756 mmHg 69%
    10:00 +16°C° 0.1 mm 1 m/s 756 mmHg 67%
    11:00 +18°C° 0 mm 1 m/s 755 mmHg 65%
    12:00 +19°C° 0 mm 1 m/s 755 mmHg 63%
    13:00 +19°C° 0 mm 1 m/s 755 mmHg 61%
    14:00 +19°C° 0 mm 1 m/s 755 mmHg 63%
    15:00 +18°C° 0 mm 1 m/s 755 mmHg 66%
    16:00 +18°C° 0 mm 1 m/s 755 mmHg 68%
    17:00 +16°C° 0 mm 1 m/s 755 mmHg 70%
    18:00 +16°C° 0 mm 1 m/s 755 mmHg 72%
    19:00 +15°C° 0 mm 1 m/s 755 mmHg 75%
    20:00 +15°C° 0 mm 1 m/s 755 mmHg 76%
    21:00 +14°C° 0 mm 1 m/s 755 mmHg 77%
    22:00 +14°C° 0 mm 1 m/s 756 mmHg 78%
    23:00 +14°C° 0 mm 1 m/s 756 mmHg 80%

    19 Octobre, Vendredi

    Heure Température Précipitation Vent Pression Humidité
    00:00 +12°C° 0 mm 0 m/s 756 mmHg 81%
    01:00 +12°C° 0 mm 0 m/s 756 mmHg 82%
    02:00 +13°C° 0 mm 1 m/s 756 mmHg 83%
    03:00 +13°C° 0 mm 1 m/s 756 mmHg 83%
    04:00 +12°C° 0 mm 1 m/s 756 mmHg 84%
    05:00 +13°C° 0 mm 1 m/s 756 mmHg 83%
    06:00 +13°C° 0 mm 1 m/s 756 mmHg 82%
    07:00 +13°C° 0 mm 1 m/s 756 mmHg 81%
    08:00 +14°C° 0 mm 1 m/s 756 mmHg 75%
    09:00 +15°C° 0 mm 1 m/s 756 mmHg 70%
    10:00 +16°C° 0 mm 1 m/s 757 mmHg 64%
    11:00 +17°C° 0 mm 2 m/s 757 mmHg 62%
    12:00 +17°C° 0 mm 2 m/s 757 mmHg 60%
    13:00 +18°C° 0 mm 2 m/s 756 mmHg 58%
    14:00 +18°C° 0 mm 2 m/s 756 mmHg 60%
    15:00 +17°C° 0 mm 2 m/s 756 mmHg 62%
    16:00 +17°C° 0 mm 2 m/s 756 mmHg 64%
    17:00 +16°C° 0 mm 2 m/s 756 mmHg 67%
    18:00 +15°C° 0 mm 2 m/s 757 mmHg 69%
    19:00 +15°C° 0 mm 2 m/s 757 mmHg 71%
    20:00 +15°C° 0 mm 2 m/s 757 mmHg 73%
    21:00 +14°C° 0 mm 2 m/s 757 mmHg 74%
    22:00 +14°C° 0 mm 2 m/s 757 mmHg 76%
    23:00 +14°C° 0 mm 2 m/s 758 mmHg 77%

    20 Octobre, Samedi

    Heure Température Précipitation Vent Pression Humidité
    00:00 +13°C° 0 mm 2 m/s 758 mmHg 79%
    01:00 +13°C° 0 mm 2 m/s 758 mmHg 81%
    02:00 +13°C° 0 mm 2 m/s 758 mmHg 82%
    03:00 +12°C° 0 mm 2 m/s 758 mmHg 84%
    04:00 +12°C° 0 mm 2 m/s 758 mmHg 85%
    05:00 +12°C° 0 mm 2 m/s 758 mmHg 86%
    06:00 +10°C° 0 mm 2 m/s 758 mmHg 87%
    07:00 +10°C° 0 mm 2 m/s 759 mmHg 89%
    08:00 +12°C° 0.1 mm 2 m/s 759 mmHg 85%
    09:00 +12°C° 0.1 mm 3 m/s 759 mmHg 82%
    10:00 +12°C° 0.1 mm 3 m/s 760 mmHg 79%
    11:00 +13°C° 0 mm 3 m/s 760 mmHg 76%
    12:00 +13°C° 0 mm 3 m/s 760 mmHg 74%
    13:00 +13°C° 0 mm 3 m/s 760 mmHg 71%
    14:00 +13°C° 0 mm 3 m/s 760 mmHg 69%
    15:00 +13°C° 0 mm 3 m/s 760 mmHg 68%
    16:00 +13°C° 0 mm 3 m/s 760 mmHg 66%
    17:00 +12°C° 0 mm 3 m/s 761 mmHg 68%
    18:00 +11°C° 0 mm 3 m/s 761 mmHg 70%
    19:00 +10°C° 0 mm 3 m/s 761 mmHg 71%
    20:00 +9°C° 0 mm 3 m/s 762 mmHg 73%
    21:00 +8°C° 0 mm 3 m/s 762 mmHg 74%
    22:00 +8°C° 0 mm 3 m/s 762 mmHg 75%
    23:00 +7°C° 0 mm 2 m/s 762 mmHg 77%
    Voir plus